Regional Weather Roundup
Issued by NWS Sterling, VA

Home | Current Version | Previous Version | Text Only | Print | Product List | Glossary Off
Versions: 1 2 3 4 5 6 7 8 9 10 11 12 13 14 15 16 17 18 19 20 21 22 23 24 25 26 27 28 29 30 31 32 33 34 35 36 37 38 39 40 41 42 43 44 45 46 47 48 49 50

000
ASUS41 KLWX 211510
RWRLWX

REGIONAL WEATHER ROUNDUP
NATIONAL WEATHER SERVICE BALTIMORE MD/WASHINGTON DC
1000 AM EST FRI NOV 21 2014

Note: "FAIR" indicates few or no clouds below 12,000 feet
with no significant weather and/or obstructions to visibility.
 TC=TEMPERATURE CELSIUS

 * =Non NWS site. Station does not report precipitation (e.g. rain,
    snow, etc.), thunder, or fog.

DCZ001-MDZ009-015-VAZ040>042-051-053>054-211600-
WASHINGTON METRO

CITY           SKY/WX    TMP DP  RH WIND       PRES   REMARKS
WASHINGTON NAT MOSUNNY   36   9  32 NW16      30.46R WCI  26
DULLES         SUNNY     19   9  63 CALM      30.50R
ANDREWS AFB    SUNNY     32   8  35 NW17      30.43R WCI  21
FT BELVOIR     SUNNY     33   8  34 NW21      30.46R WCI  21
QUANTICO       MOSUNNY   34   6  31 N21G31    30.48R WCI  22
COLLEGE PARK*  SUNNY     32   7  34 NW14G22   30.44R WCI  22
LEESBURG*      PTSUNNY   32  12  43 N15G22    30.45R WCI  22
MANASSAS*      SUNNY     34   7  32 NW17G25   30.45R WCI  23
GAITHERSBURG*  MOSUNNY   30   9  40 NW12G20   30.46R WCI  21

$$

MDZ006>007-011-014-211600-
BALTIMORE METRO

CITY           SKY/WX    TMP DP  RH WIND       PRES   REMARKS
BWI AIRPORT    MOSUNNY   32   7  35 W15G24    30.42R WCI  22
MD SCIENCE CTR   N/A     31   6  35 MISG      30.42R
ANNAPOLIS      MOSUNNY   33  10  38 NW15G23   30.43R WCI  23
FORT MEADE*    SUNNY     32   9  37 NW9G22    30.46R WCI  24

$$

MDZ012-015-019>023-211600-
MARYLAND EASTERN SHORE

CITY           SKY/WX    TMP DP  RH WIND       PRES   REMARKS
OCEAN CITY     MIX PCPN  34   6  31 NW20G32   30.38R WCI  23
SALISBURY      SUNNY     37  10  32 NW18G25   30.40R WCI  27
BAY BRIDGE AP*   N/A     32   9  37 NW17G24   30.44R WCI  21
CAMBRIDGE*     MOSUNNY   36  12  38 NW16G24   30.42R WCI  26
EASTON*        MOSUNNY   36  10  35 NW20G29   30.44S WCI  25

$$

MDZ017>025-211600-
SOUTHERN MARYLAND

CITY           SKY/WX    TMP DP  RH WIND       PRES   REMARKS
PATUXENT RIVER MOSUNNY   35   8  32 NW17G29   30.43R WCI  25
ST INIGOES     SUNNY     36   6  28 NW7G23    30.43R
LEONARDTOWN*   SUNNY     34   7  32 W16       30.44S WCI  23

$$

MDZ003>005-211600-
NORTH CENTRAL MARYLAND

CITY           SKY/WX    TMP DP  RH WIND       PRES   REMARKS
FREDERICK*     PTSUNNY   36   3  25 NW13G18   30.46R WCI  27
HAGERSTOWN APT MOSUNNY   30   8  39 W18       30.40R WCI  18
WESTMINSTER*   MOSUNNY   28   7  40 NW14G28   30.38R WCI  17

$$

MDZ501>502-211600-
WESTERN MARYLAND

CITY           SKY/WX    TMP DP  RH WIND       PRES   REMARKS
OAKLAND*       CLOUDY    16   5  62 NW10G16   30.27R WCI   3
CUMBERLAND*    PTSUNNY   30  10  43 NW6G12    30.48R

$$

VAZ025>031-211600-
SHENANDOAH VALLEY

CITY           SKY/WX    TMP DP  RH WIND       PRES   REMARKS
WINCHESTER*    MOSUNNY   32   3  29 NW22      30.42R WCI  19
FRONT ROYAL*   FAIR      30   9  40 NW12G18   30.41R WCI  21
LURAY*         FAIR      32   9  37 NW12G18   30.41R WCI  23
NEW MARKET*    FAIR      30   5  33 N8        30.40R WCI  23
STAUNTON*      MOSUNNY   32   6  32 N9        30.41R WCI  24
WAYNESBORO*    FAIR      29   8  41 NW5       30.37R

$$

WVZ021-048>050-054>055-211600-
EASTERN WEST VIRGINIA PANHANDLE

CITY           SKY/WX    TMP DP  RH WIND       PRES   REMARKS
MARTINSBURG    MOSUNNY   31   4  31 NW12G22   30.43R WCI  22
PETERSBURG*    SUNNY     30   4  33 NW12      30.44R WCI  20

$$

VAZ036>039-050-211600-
CENTRAL FOOTHILLS

CITY           SKY/WX    TMP DP  RH WIND       PRES   REMARKS
CHARLOTTESVILL SUNNY     34   8  33 NW16      30.42R WCI  24
CULPEPER*      SUNNY     36   9  32 N8        30.45R
ORANGE*        SUNNY     34   9  35 W9G20     30.44R WCI  26
GORDONSVILLE*  FAIR      33   8  35 NW3       30.43R
WARRENTON*     FAIR      35  15  43 NW15      30.44R WCI  26

$$

VAZ055>057-211600-
NORTH AND CENTRAL PIEDMONT

CITY           SKY/WX    TMP DP  RH WIND       PRES   REMARKS
FREDERICKSBRG* MOSUNNY   36  12  37 NW12      30.44S WCI  27
STAFFORD*      SUNNY     34   6  31 NW12G17   30.49R WCI  25

$$

NCZ024-NYZ072-PAZ021-071-VAZ022-071-211600-
OTHER REGIONAL OBSERVATIONS

CITY           SKY/WX    TMP DP  RH WIND       PRES   REMARKS
NEW YORK CITY  SUNNY     30   8  39 NW10G20   30.29R WCI  21
PHILADELPHIA   MOSUNNY   32   7  35 NW22      30.37R WCI  19
PITTSBURGH     MOSUNNY   22  14  71 W12       30.43R WCI  10
ROANOKE        SUNNY     34   9  35 W10       30.43R WCI  26
RICHMOND       MOSUNNY   39  10  30 N15G23    30.43R
RALEIGH        MOSUNNY   42  17  36 N7        30.43R

$$

ANZ530>537-211600-
MARINE OBSERVATIONS

STATION/POSITION TIME  TEMP    WIND        PRES
                       AIR SEA DIR/SP/G
                 (UTC) (F)     (DEG/KT/KT) (MB)
THOMAS PT LIGHT  1500   32 47  290/ 21/ 24 1031.3R
BALT KEY BRIDGE  1500   31     310/ 18/ 20 1029.9R
COVE POINT       1500   33     350/ 18/ 23 1030.1R
LEWISETTA        1500   35 43  350/ 13/ 19 1030.4R
SOLOMONS ISLAND  1500      48                N/A
PINEY POINT      1500          340/ 22/ 25   N/A

$$



USA.gov is the U.S. government's official web portal to all federal, state and local government web resources and services.